CW0962 Weather Reports


Display with metric or nautical units.
time (UTC)temp
F
wind
direction
speed
MPH
gust
MPH
rain 1hr
in
rain 24hr
in
rain mn
in
humidity
%
barometer
mb
20260508165007 63 260 7.0 18.0 0.00 0.00 0.00 28 1006.9
20260508164459 64 165 5.0 11.0 0.00 0.00 0.00 30 1006.9
20260508164004 64 227 5.0 13.0 0.00 0.00 0.00 29 1006.9
20260508162508 63 221 5.0 16.0 0.00 0.00 0.00 32 1007.2
20260508161545 62 167 6.0 14.0 0.00 0.00 0.00 30 1007.1
20260508161006 63 238 5.0 11.0 0.00 0.00 0.00 30 1007.2
20260508160503 61 298 5.0 11.0 0.00 0.00 0.00 36 1007.3
20260508160006 60 195 4.0 10.0 0.00 0.00 0.00 36 1007.4
20260508155011 61 186 5.0 11.0 0.00 0.00 0.00 33 1007.5
20260508154504 61 188 5.0 11.0 0.00 0.00 0.00 30 1007.4
20260508154010 63 237 4.0 11.0 0.00 0.00 0.00 35 1007.5
20260508152513 62 183 3.0 13.0 0.00 0.00 0.00 34 1007.6
20260508151459 61 207 3.0 6.0 0.00 0.00 0.00 33 1007.7
20260508151000 60 307 2.0 6.0 0.00 0.00 0.00 35 1007.7
20260508150459 61 255 2.0 6.0 0.00 0.00 0.00 31 1007.8
20260508150001 62 311 3.0 7.0 0.00 0.00 0.00 33 1007.8
20260508145459 61 297 3.0 8.0 0.00 0.00 0.00 34 1007.9
20260508145000 60 259 3.0 8.0 0.00 0.00 0.00 35 1007.8
20260508144459 60 219 3.0 7.0 0.00 0.00 0.00 38 1007.9
20260508143959 59 184 5.0 9.0 0.00 0.00 0.00 38 1007.9
20260508143459 58 207 5.0 9.0 0.00 0.00 0.00 33 1007.9
20260508142500 61 203 2.0 6.0 0.00 0.00 0.00 31 1008.0
20260508141959 60 237 2.0 6.0 0.00 0.00 0.00 33 1008.0
20260508141459 60 158 2.0 8.0 0.00 0.00 0.00 32 1008.0
20260508141000 60 300 3.0 8.0 0.00 0.00 0.00 36 1008.0
20260508140459 59 219 3.0 8.0 0.00 0.00 0.00 35 1008.0
20260508140001 59 258 3.0 7.0 0.00 0.00 0.00 37 1008.0
20260508135459 60 304 2.0 7.0 0.00 0.00 0.00 37 1008.1
20260508135000 58 279 1.0 5.0 0.00 0.00 0.00 39 1008.1
20260508134459 58 302 2.0 5.0 0.00 0.00 0.00 37 1008.2
20260508134000 58 281 2.0 5.0 0.00 0.00 0.00 38 1008.3
20260508133459 58 271 2.0 5.0 0.00 0.00 0.00 38 1008.2
20260508133000 57 114 2.0 5.0 0.00 0.00 0.00 40 1008.2
20260508132458 57 309 2.0 6.0 0.00 0.00 0.00 40 1008.3
20260508131459 56 255 2.0 7.0 0.00 0.00 0.00 40 1008.3
20260508130959 56 324 1.0 4.0 0.00 0.00 0.00 43 1008.3
20260508130459 55 231 1.0 4.0 0.00 0.00 0.00 44 1008.3
20260508130004 54 336 1.0 5.0 0.00 0.00 0.00 43 1008.3
20260508125459 54 315 2.0 5.0 0.00 0.02 0.00 43 1008.3
20260508125000 55 293 2.0 5.0 0.00 0.02 0.00 40 1008.3
20260508124459 56 342 2.0 7.0 0.00 0.02 0.00 41 1008.2
20260508124000 57 256 3.0 7.0 0.00 0.02 0.00 43 1008.3
20260508123459 56 196 2.0 7.0 0.00 0.02 0.00 43 1008.4
20260508122500 54 298 1.0 5.0 0.00 0.02 0.00 46 1008.4
20260508121959 54 327 1.0 5.0 0.00 0.02 0.00 45 1008.4
20260508121500 53 324 1.0 4.0 0.00 0.02 0.00 45 1008.4
20260508121000 53 278 2.0 7.0 0.00 0.02 0.00 50 1008.4
20260508120459 52 271 1.0 7.0 0.00 0.02 0.00 51 1008.4
20260508120000 51 267 1.0 5.0 0.00 0.05 0.00 55 1008.4
20260508115459 50 220 1.0 5.0 0.00 0.05 0.00 52 1008.5
20260508114959 50 215 1.0 6.0 0.00 0.05 0.00 56 1008.5
20260508114459 49 215 2.0 6.0 0.00 0.05 0.00 55 1008.5
20260508113959 49 232 2.0 9.0 0.00 0.05 0.00 55 1008.5
20260508112959 49 278 2.0 6.0 0.00 0.05 0.00 57 1008.4
20260508112500 48 240 2.0 6.0 0.00 0.05 0.00 57 1008.4
20260508112000 47 253 2.0 5.0 0.00 0.05 0.00 63 1008.3
20260508111459 47 214 1.0 4.0 0.00 0.05 0.00 62 1008.4
20260508111000 47 215 1.0 6.0 0.00 0.05 0.00 64 1008.3
20260508110459 47 215 1.0 6.0 0.00 0.05 0.00 63 1008.2
20260508110000 47 223 2.0 6.0 0.00 0.10 0.00 62 1008.2
20260508105458 47 223 2.0 6.0 0.00 0.10 0.00 62 1008.2
20260508105000 46 227 1.0 4.0 0.00 0.10 0.00 63 1008.1
20260508104500 45 236 1.0 4.0 0.00 0.10 0.00 67 1008.0
20260508104000 44 236 1.0 4.0 0.00 0.10 0.00 71 1008.0
20260508103459 44 236 1.0 4.0 0.00 0.10 0.00 70 1008.0
20260508102459 43 240 1.0 5.0 0.00 0.10 0.00 73 1007.9
20260508101959 43 241 1.0 5.0 0.00 0.10 0.00 75 1007.9
20260508093959 40 238 1.0 4.0 0.00 0.17 0.00 75 1007.5
20260508093459 40 238 1.0 4.0 0.00 0.17 0.00 77 1007.5
20260508092459 39 240 1.0 4.0 0.00 0.17 0.00 79 1007.4
20260508092001 39 240 0.0 4.0 0.00 0.17 0.00 81 1007.4
20260508091500 39 252 1.0 2.0 0.00 0.17 0.00 82 1007.4
20260508091001 39 252 1.0 2.0 0.00 0.17 0.00 83 1007.3
20260508090459 38 254 1.0 3.0 0.00 0.17 0.00 82 1007.3
20260508090004 39 254 1.0 4.0 0.00 0.34 0.00 82 1007.3
20260508085458 39 261 0.0 2.0 0.00 0.34 0.00 82 1007.2
20260508084958 39 261 0.0 1.0 0.00 0.34 0.00 82 1007.1
20260508084459 39 261 0.0 4.0 0.00 0.34 0.00 81 1007.0
20260508083959 39 261 0.0 4.0 0.00 0.34 0.00 81 1006.9
20260508081959 39 267 0.0 2.0 0.00 0.34 0.00 78 1006.7
20260508081457 40 267 0.0 2.0 0.00 0.34 0.00 78 1006.6
20260508080959 40 267 0.0 1.0 0.00 0.34 0.00 77 1006.5
20260508080458 40 267 0.0 1.0 0.00 0.34 0.00 77 1006.4
20260508075959 40 267 0.0 1.0 0.00 0.34 0.00 77 1006.3
20260508075458 40 267 1.0 2.0 0.00 0.34 0.00 77 1006.3
20260508075028 40 267 1.0 2.0 0.00 0.34 0.00 76 1006.3
20260508074523 41 267 1.0 2.0 0.00 0.34 0.00 76 1006.2
20260508073959 41 267 0.0 1.0 0.00 0.34 0.00 75 1006.0
20260508073458 41 267 0.0 0.0 0.00 0.34 0.00 73 1005.9
20260508072958 41 267 0.0 0.0 0.00 0.34 0.00 71 1005.9
20260508071959 42 267 0.0 0.0 0.00 0.34 0.00 70 1005.8
20260508071458 42 267 0.0 0.0 0.00 0.34 0.00 69 1005.8
20260508070959 42 267 0.0 0.0 0.00 0.34 0.00 69 1005.9
20260508070458 42 267 0.0 0.0 0.00 0.34 0.00 68 1006.0
20260508065458 43 267 0.0 0.0 0.00 0.34 0.00 67 1006.0
20260508064958 43 267 0.0 0.0 0.00 0.34 0.00 66 1006.0
20260508064459 44 267 0.0 0.0 0.00 0.34 0.00 64 1005.9
20260508063959 45 267 0.0 0.0 0.00 0.34 0.00 63 1005.8
20260508063458 45 267 0.0 0.0 0.00 0.34 0.00 62 1005.8
20260508062959 45 267 0.0 1.0 0.00 0.34 0.00 64 1005.7
20260508062459 46 267 0.0 2.0 0.00 0.34 0.00 61 1005.8
20260508061959 47 267 0.0 2.0 0.00 0.34 0.00 56 1005.7
20260508061459 48 267 1.0 2.0 0.00 0.34 0.00 51 1005.6
20260508060959 48 267 1.0 4.0 0.00 0.34 0.00 48 1005.6
20260508055959 48 267 1.0 4.0 0.00 0.34 0.00 51 1005.7
20260508055458 48 267 1.0 4.0 0.00 0.34 0.00 50 1005.6
20260508054959 49 267 1.0 2.0 0.00 0.34 0.00 51 1005.6
20260508053958 49 267 1.0 2.0 0.00 0.34 0.00 51 1005.6
20260508053458 49 267 1.0 4.0 0.00 0.34 0.00 50 1005.6
20260508052959 50 267 1.0 4.0 0.00 0.34 0.00 52 1005.6
20260508052458 50 264 1.0 4.0 0.00 0.34 0.00 53 1005.6
20260508051958 50 264 1.0 4.0 0.00 0.34 0.00 54 1005.7
20260508050959 50 219 1.0 2.0 0.00 0.34 0.00 53 1005.6
20260508050458 50 221 0.0 2.0 0.00 0.34 0.00 53 1005.7
20260508045500 50 219 1.0 6.0 0.00 0.34 0.00 53 1005.6
20260508045001 50 22 1.0 2.0 0.00 0.34 0.00 54 1005.6
20260508044501 50 22 1.0 4.0 0.00 0.34 0.00 56 1005.6
20260508044001 50 24 1.0 4.0 0.00 0.34 0.00 56 1005.7
20260508043501 50 47 0.0 4.0 0.00 0.34 0.00 56 1005.6
20260508042501 50 237 0.0 2.0 0.00 0.34 0.00 58 1005.6
20260508042001 50 237 0.0 2.0 0.00 0.34 0.00 58 1005.6
20260508041500 50 237 0.0 2.0 0.00 0.34 0.00 56 1005.6
20260508041001 50 237 1.0 2.0 0.00 0.34 0.00 57 1005.6
20260508040500 50 243 1.0 4.0 0.00 0.34 0.00 57 1005.7
20260508040006 50 244 0.0 4.0 0.00 0.34 0.00 57 1005.7
20260508035459 50 243 0.0 4.0 0.00 0.34 0.34 60 1005.7
20260508035001 50 184 0.0 2.0 0.00 0.34 0.34 60 1005.7
20260508034501 50 184 0.0 2.0 0.00 0.34 0.34 58 1005.7
20260508033459 49 188 0.0 4.0 0.00 0.34 0.34 60 1005.7
20260508033001 49 188 0.0 4.0 0.00 0.34 0.34 62 1005.7
20260508032500 49 192 0.0 2.0 0.00 0.34 0.34 61 1005.7
20260508032000 49 192 0.0 6.0 0.00 0.34 0.34 60 1005.8
20260508031459 49 192 0.0 6.0 0.00 0.34 0.34 59 1005.9
20260508031000 49 97 0.0 2.0 0.00 0.34 0.34 59 1005.9
20260508030459 49 97 0.0 2.0 0.00 0.34 0.34 60 1005.8
20260508030002 48 97 1.0 2.0 0.00 0.34 0.34 62 1005.9
20260508025500 48 182 0.0 2.0 0.00 0.34 0.34 63 1005.9
20260508024500 48 182 0.0 5.0 0.00 0.34 0.34 59 1005.8
20260508024000 48 182 0.0 5.0 0.00 0.34 0.34 60 1005.8
20260508023500 48 160 0.0 2.0 0.00 0.34 0.34 63 1005.7
20260508021500 49 202 0.0 0.0 0.00 0.34 0.34 66 1005.9
20260508021000 49 202 0.0 2.0 0.00 0.34 0.34 63 1005.8
20260508020459 48 202 0.0 2.0 0.00 0.34 0.34 62 1005.8
20260508020004 49 202 0.0 2.0 0.00 0.34 0.34 62 1005.7
20260508015500 49 202 0.0 2.0 0.00 0.34 0.34 60 1005.7
20260508015002 49 202 0.0 2.0 0.00 0.34 0.34 61 1005.8
20260508014000 50 202 0.0 4.0 0.00 0.34 0.34 59 1005.7
20260508013459 50 204 0.0 2.0 0.00 0.34 0.34 60 1005.7
20260508013001 50 199 1.0 5.0 0.00 0.34 0.34 59 1005.5
20260508012500 50 199 1.0 5.0 0.00 0.34 0.34 61 1005.6
20260508012001 51 173 1.0 5.0 0.00 0.34 0.34 61 1005.5
20260508011459 51 202 0.0 2.0 0.00 0.34 0.34 59 1005.4
20260508011001 51 205 1.0 2.0 0.00 0.34 0.34 59 1005.3
20260508010004 51 205 0.0 5.0 0.00 0.34 0.34 57 1005.2
20260508005500 51 208 1.0 5.0 0.00 0.40 0.34 58 1005.2
20260508005000 51 221 1.0 5.0 0.00 0.40 0.34 64 1005.3
20260508004500 51 62 0.0 2.0 0.00 0.40 0.34 66 1005.2
20260508004001 51 62 0.0 1.0 0.00 0.40 0.34 66 1004.9
20260508003459 52 62 0.0 0.0 0.00 0.40 0.34 61 1004.5
20260508003000 52 62 0.0 1.0 0.00 0.40 0.34 57 1004.5
20260508002500 52 62 0.0 1.0 0.00 0.40 0.34 55 1004.3
20260508002000 52 62 0.0 1.0 0.00 0.40 0.34 59 1004.4
20260508001500 53 62 0.0 1.0 0.00 0.40 0.34 62 1004.3
20260508001000 53 62 0.0 1.0 0.00 0.40 0.34 64 1004.3
20260508000459 54 62 0.0 1.0 0.00 0.40 0.34 61 1004.3
20260508000000 54 62 0.0 1.0 0.00 0.57 0.34 62 1004.2
20260507235459 55 62 0.0 1.0 0.00 0.57 0.34 58 1004.1
20260507234959 55 62 0.0 1.0 0.00 0.57 0.34 59 1004.2
20260507234459 56 60 0.0 2.0 0.00 0.57 0.34 58 1004.2
20260507233959 55 60 0.0 2.0 0.00 0.57 0.34 63 1004.1
20260507233459 56 60 0.0 2.0 0.00 0.57 0.34 66 1004.0
20260507232959 56 60 0.0 2.0 0.00 0.57 0.34 66 1003.9
20260507231959 57 60 0.0 1.0 0.00 0.57 0.34 59 1003.9
20260507231458 57 60 0.0 1.0 0.00 0.57 0.34 59 1003.8
20260507231000 58 60 0.0 1.0 0.00 0.57 0.34 61 1003.8
20260507230000 59 60 0.0 2.0 0.00 0.63 0.34 54 1003.6
20260507224959 60 60 1.0 2.0 0.00 0.63 0.34 47 1003.5
20260507224459 59 60 1.0 2.0 0.00 0.63 0.34 50 1003.5
20260507223959 59 60 1.0 2.0 0.00 0.63 0.34 56 1003.5
20260507223458 59 60 1.0 2.0 0.00 0.63 0.34 59 1003.4
20260507223000 60 60 0.0 2.0 0.00 0.63 0.34 56 1003.4
20260507222459 60 60 0.0 2.0 0.00 0.63 0.34 52 1003.3
20260507221959 60 65 1.0 2.0 0.00 0.63 0.34 52 1003.3
20260507221459 60 65 1.0 4.0 0.00 0.63 0.34 53 1003.4
20260507220458 59 65 1.0 6.0 0.00 0.63 0.34 59 1003.3
20260507215458 59 53 2.0 5.0 0.00 0.65 0.34 62 1003.3
20260507214959 59 71 2.0 5.0 0.00 0.65 0.34 63 1003.3
20260507214458 59 74 2.0 5.0 0.00 0.65 0.34 61 1003.3
20260507213959 60 28 2.0 4.0 0.00 0.65 0.34 61 1003.2
20260507213459 60 29 2.0 5.0 0.00 0.65 0.34 59 1003.2
20260507213000 60 61 2.0 7.0 0.00 0.65 0.34 60 1003.1
20260507212458 59 59 2.0 7.0 0.00 0.65 0.34 60 1003.2
20260507211459 60 28 2.0 6.0 0.00 0.65 0.34 62 1003.0
20260507210959 60 5 3.0 7.0 0.00 0.65 0.34 61 1003.0
20260507210004 61 12 3.0 6.0 0.00 0.65 0.34 57 1003.0
20260507205459 62 75 2.0 6.0 0.00 0.65 0.34 57 1003.0
20260507205000 63 96 2.0 7.0 0.00 0.65 0.34 53 1002.9
20260507204500 64 53 3.0 9.0 0.00 0.65 0.34 44 1002.9
20260507203459 64 36 4.0 8.0 0.00 0.65 0.34 51 1002.8
20260507202459 64 5 3.0 10.0 0.00 0.65 0.34 55 1002.7
20260507202000 64 90 2.0 6.0 0.00 0.65 0.34 47 1002.7
20260507201459 63 86 3.0 6.0 0.00 0.65 0.34 51 1002.6
20260507201000 63 40 5.0 12.0 0.00 0.65 0.34 51 1002.7
20260507200500 62 122 5.0 12.0 0.00 0.65 0.34 56 1002.6
20260507195459 63 89 6.0 12.0 0.00 0.65 0.34 57 1002.8
20260507194959 63 123 6.0 12.0 0.00 0.65 0.34 56 1002.9
20260507194501 63 161 5.0 12.0 0.00 0.65 0.34 54 1003.0
20260507193959 63 85 5.0 10.0 0.00 0.65 0.34 53 1003.1
20260507193458 63 106 6.0 11.0 0.00 0.65 0.34 58 1003.1
20260507192958 63 80 6.0 11.0 0.00 0.65 0.34 54 1003.2
20260507191458 63 107 6.0 12.0 0.00 0.65 0.34 55 1003.4
20260507190959 63 148 5.0 12.0 0.00 0.65 0.34 58 1003.4
20260507190458 63 98 5.0 10.0 0.00 0.65 0.34 57 1003.5
20260507184959 64 111 4.0 8.0 0.00 0.65 0.34 54 1003.6
20260507184458 64 173 4.0 7.0 0.00 0.65 0.34 50 1003.7
20260507183959 64 136 4.0 7.0 0.00 0.65 0.34 51 1003.8
20260507183459 63 131 5.0 8.0 0.00 0.65 0.34 54 1003.9
20260507182959 62 99 6.0 9.0 0.00 0.65 0.34 57 1004.0
20260507182458 60 117 6.0 11.0 0.00 0.65 0.34 56 1004.0
20260507181959 61 146 7.0 11.0 0.00 0.65 0.34 55 1004.1
20260507181459 61 108 6.0 11.0 0.00 0.65 0.34 58 1004.0
20260507180458 61 145 4.0 9.0 0.00 0.65 0.34 53 1004.2
20260507175459 59 106 2.0 6.0 0.00 0.65 0.34 53 1004.4
20260507175000 60 90 2.0 5.0 0.00 0.65 0.34 56 1004.3
20260507174500 60 53 2.0 5.0 0.00 0.65 0.34 52 1004.4
20260507174001 62 42 2.0 7.0 0.00 0.65 0.34 48 1004.4
20260507173459 62 60 2.0 7.0 0.00 0.65 0.34 52 1004.5
20260507173000 61 26 2.0 5.0 0.00 0.65 0.34 56 1004.5
20260507172500 60 45 2.0 6.0 0.00 0.65 0.34 49 1004.6
20260507171458 60 338 2.0 5.0 0.00 0.65 0.34 53 1004.7
20260507171000 61 81 2.0 5.0 0.00 0.65 0.34 52 1004.7
20260507170459 59 71 2.0 7.0 0.00 0.65 0.34 52 1004.8
20260507165500 61 80 2.0 6.0 0.00 0.65 0.34 55 1004.8